Weather History for Granada, Spain

Change the Weather History Date:

Tuesday, March 19, 2013

  Actual Average Record
Temperature  
Mean Temperature 44 °F -  
Max Temperature 53 °F 67 °F 78 °F (1997)
Min Temperature 35 °F 41 °F 32 °F (2012)
Degree Days  
Heating Degree Days 21    
Moisture  
Dew Point 47 °F    
Average Humidity 92    
Maximum Humidity 100    
Minimum Humidity 71    
Precipitation  
Precipitation 0.94 in - - ()
Sea Level Pressure  
Sea Level Pressure 29.68 in    
Wind  
Wind Speed 1 mph ()    
Max Wind Speed 9 mph    
Max Gust Speed -    
Visibility 5.3 miles    
Events Rain , Thunderstorm    
Averages and records for this station are not official NWS values.
T = Trace of Precipitation, MM = Missing Value Source: Averaged Metar Reports

Daily Weather History Graph

Daily Weather History Graph

Search for Another Location

Airport:

Trip Planner

Search our weather history database for the weather conditions in past years. The results will help you decide how hot, cold, wet, or windy it might be!

Date:

Astronomy

Mar. 19, 2013 Rise Set
Actual Time 7:20 AM CET 7:26 PM CET
Civil Twilight 6:54 AM CET 7:52 PM CET
Nautical Twilight 6:23 AM CET 8:22 PM CET
Astronomical Twilight 5:53 AM CET 8:53 PM CET
Moon 12:05 PM CET (3/19) 1:54 AM CET (3/19)
Length of Visible Light 12h 57m
Length of Day
12h 05m
Waxing Crescent, 48% of the Moon is Illuminated
Mar 19
Waxing Crescent
Mar 19
First Quarter
Mar 27
Full
Apr 3
Last Quarter
Apr 10
New

Hourly Weather History & Observations

Time (CET) Temp. Dew Point Humidity Pressure Visibility Wind Dir Wind Speed Gust Speed Precip Events Conditions
1:00 AM 38 °F 32 °F 71% 29.86 in 19 mi WSW 2.3 mph - -  
6:00 AM 37.4 °F 35.6 °F 93% 29.77 in 6.2 mi Calm Calm - N/A   Partly Cloudy
6:30 AM 37.4 °F 35.6 °F 93% 29.77 in 6.2 mi Calm Calm - N/A   Scattered Clouds
7:00 AM 38 °F 35 °F 83% 29.82 in 12 mi SSE 2.3 mph - -   Mostly Cloudy
7:00 AM 39.2 °F 37.4 °F 93% 29.77 in 6.2 mi Variable 2.3 mph - N/A   Scattered Clouds
7:30 AM 41.0 °F 37.4 °F 87% 29.74 in 6.2 mi Calm Calm - N/A   Scattered Clouds
8:00 AM 41.0 °F 39.2 °F 93% 29.74 in 6.2 mi Calm Calm - N/A   Scattered Clouds
8:30 AM 42.8 °F 39.2 °F 87% 29.74 in 6.2 mi Calm Calm - N/A   Partly Cloudy
9:00 AM 48.2 °F 42.8 °F 82% 29.71 in 6.2 mi Calm Calm - N/A   Partly Cloudy
9:30 AM 46.4 °F 41.0 °F 81% 29.71 in 6.2 mi Variable 1.2 mph - N/A   Scattered Clouds
10:00 AM 48.2 °F 41.0 °F 76% 29.71 in 6.2 mi Variable 1.2 mph - N/A Rain Rain
10:30 AM 46.4 °F 42.8 °F 87% 29.71 in 6.2 mi Variable 1.2 mph - N/A Rain Light Rain
11:00 AM 46.4 °F 41.0 °F 81% 29.71 in 6.2 mi Calm Calm - N/A   Scattered Clouds
11:30 AM 50.0 °F 42.8 °F 76% 29.71 in 6.2 mi Variable 1.2 mph - N/A   Scattered Clouds
12:00 PM 51.8 °F 44.6 °F 76% 29.71 in 6.2 mi Variable 2.3 mph - N/A   Scattered Clouds
12:30 PM 51.8 °F 46.4 °F 82% 29.68 in 6.2 mi Calm Calm - N/A   Scattered Clouds
12:34 PM 51.8 °F 46.4 °F 82% 29.68 in 6.2 mi Calm Calm - N/A Rain Rain
12:41 PM 51.8 °F 46.4 °F 82% 29.68 in 2.5 mi Calm Calm - N/A Rain Heavy Rain
1:00 PM 51 °F 45 °F 73% 29.69 in 5 mi East 1.2 mph - - Rain Rain
1:00 PM 50.0 °F 48.2 °F 94% 29.68 in 5.0 mi Variable 1.2 mph - N/A Rain Rain
1:30 PM 51.8 °F 50.0 °F 94% 29.68 in 1.9 mi Variable 1.2 mph - N/A Rain Rain
1:33 PM 51.8 °F 50.0 °F 94% 29.68 in 3.1 mi Variable 2.3 mph - N/A Rain Rain
2:00 PM 51.8 °F 51.8 °F 100% 29.65 in 6.2 mi Variable 1.2 mph - N/A   Scattered Clouds
2:30 PM 51.8 °F 51.8 °F 100% 29.65 in 6.2 mi Calm Calm - N/A   Scattered Clouds
3:00 PM 53.6 °F 51.8 °F 94% 29.65 in 3.1 mi Calm Calm - N/A Rain Rain
3:30 PM 53.6 °F 51.8 °F 94% 29.62 in 4.3 mi Calm Calm - N/A Rain Rain
4:00 PM 53.6 °F 51.8 °F 94% 29.62 in 2.8 mi Calm Calm - N/A Rain Rain
4:03 PM 53.6 °F 51.8 °F 94% 29.62 in 0.9 mi Calm Calm - N/A Rain Heavy Rain
4:30 PM 53.6 °F 51.8 °F 94% 29.62 in 3.7 mi Variable 2.3 mph - N/A Rain Rain
4:38 PM 51.8 °F 51.8 °F 100% 29.65 in 0.9 mi NW 3.5 mph - N/A Rain Heavy Rain
5:00 PM 51.8 °F 51.8 °F 100% 29.65 in 1.2 mi Variable 1.2 mph - N/A Rain Heavy Rain
5:07 PM 51.8 °F 51.8 °F 100% 29.65 in 1.2 mi Variable 1.2 mph - N/A Rain , Thunderstorm Thunderstorms and Rain
5:30 PM 51.8 °F 51.8 °F 100% 29.65 in 1.9 mi Calm Calm - N/A Rain Heavy Rain
6:00 PM 51.8 °F 51.8 °F 100% 29.65 in 6.2 mi SE 6.9 mph - N/A Rain Rain
6:30 PM 51.8 °F 51.8 °F 100% 29.62 in 6.2 mi East 9.2 mph - N/A   Scattered Clouds
6:45 PM 51.8 °F 51.8 °F 100% 29.62 in 6.2 mi East 6.9 mph - N/A Rain Rain
7:00 PM 52 °F 49 °F 85% 29.63 in 9 mi East 2.3 mph - -   Partly Cloudy
7:00 PM 51.8 °F 51.8 °F 100% 29.62 in 6.2 mi Variable 2.3 mph - N/A   Scattered Clouds
7:11 PM 51.8 °F 51.8 °F 100% 29.62 in 6.2 mi East 3.5 mph - N/A Rain Rain
7:30 PM 51.8 °F 51.8 °F 100% 29.65 in 4.3 mi ESE 3.5 mph - N/A Rain Rain
8:00 PM 51.8 °F 51.8 °F 100% 29.65 in 3.7 mi SSE 4.6 mph - N/A Rain Rain
8:30 PM 51.8 °F 51.8 °F 100% 29.62 in 3.7 mi SE 3.5 mph - N/A Rain Rain
9:00 PM 51.8 °F 51.8 °F 100% 29.65 in 6.2 mi Variable 2.3 mph - N/A Rain Rain
9:30 PM 51.8 °F 51.8 °F 100% 29.65 in 5.0 mi Variable 1.2 mph - N/A Rain Rain
10:00 PM 51.8 °F 51.8 °F 100% 29.65 in 5.0 mi Calm Calm - N/A Rain Rain
10:30 PM 51.8 °F 51.8 °F 100% 29.65 in 5.0 mi Calm Calm - N/A Rain Rain
11:00 PM 51.8 °F 51.8 °F 100% 29.65 in 1.9 mi Calm Calm - N/A Rain Rain